Dewpoint
33 34 37 40 41 45 45 45 45 44 44 44 44 44 44 44 45 42 39 42 37 34 31 33 32 31 33 33 29 35 34 34 32 29 25 24 22 21 20 21 24 25 23 24 25 25 22 27 28 21 30 30 30 29
36 38 38 40 43 44 45 44 44 45 44 44 44 44 44 45 44 42 38 41 40 34 30 36 34 33 33 33 37 37 35 36 34 28 25 26 26 26 23 18 26 24 24 26 27 23 31 29 30 30 30 29 30 29
37 39 41 45 43 43 45 45 44 44 44 44 44 44 44 44 44 41 40 41 39 35 34 35 32 33 38 39 37 34 37 37 36 35 32 29 26 27 21 22 26 29 28 28 27 26 27 30 30 29 29 29 29 28
39 41 41 43 43 43 43 44 44 44 44 44 44 44 44 44 44 43 40 41 39 36 30 30 36 36 36 35 39 38 38 41 39 38 34 32 28 31 26 27 26 26 29 28 27 28 29 29 30 29 28 29 28 27
41 42 44 43 44 44 44 44 44 44 44 44 44 44 44 44 43 42 41 40 41 35 30 33 35 34 39 39 37 38 40 39 38 34 32 32 32 34 32 30 26 28 27 28 28 30 28 28 31 30 29 28 27 26
41 40 44 43 43 44 44 44 44 44 43 43 44 44 43 43 41 40 34 42 42 41 33 29 38 38 40 39 39 39 41 39 36 33 33 34 37 35 32 28 26 28 30 30 30 32 32 32 31 30 29 27 26 26
43 43 42 42 43 44 44 44 44 43 43 43 43 43 43 42 41 36 35 40 43 41 33 30 32 37 38 41 39 39 40 37 36 34 33 34 35 36 31 29 29 30 31 31 31 30 30 30 29 29 28 27 27 25
42 42 42 42 43 43 43 43 42 42 41 42 42 42 42 42 41 38 39 41 43 39 36 30 30 32 38 33 32 36 36 36 35 34 33 33 32 35 31 29 31 32 31 31 30 29 29 29 29 28 27 26 24 23
43 43 43 43 42 42 41 41 41 41 41 40 40 40 42 40 35 37 41 41 43 37 31 31 29 29 37 33 34 31 33 32 32 31 28 30 28 28 30 26 28 30 30 29 27 27 27 28 27 27 26 25 23 23
43 42 42 41 41 41 40 40 40 41 42 40 39 35 31 36 42 41 37 34 34 34 35 30 32 31 35 33 31 30 29 28 27 28 28 27 25 29 28 30 30 31 30 28 27 26 26 26 26 25 25 24 23 23
42 42 42 42 42 41 41 41 41 40 38 36 33 31 37 42 36 32 29 29 31 28 33 32 33 31 34 30 28 28 28 26 21 26 25 24 22 26 29 30 31 31 29 28 27 27 26 26 26 25 24 24 23 23
43 42 42 41 40 41 41 40 38 36 35 34 36 38 36 33 30 27 27 27 30 25 31 31 31 33 32 33 28 27 25 24 17 27 26 21 25 28 30 31 31 31 29 28 28 27 27 26 26 26 25 23 22 22
41 41 41 41 41 41 39 39 40 39 38 37 33 31 30 28 23 21 21 24 27 31 32 32 30 33 31 28 28 26 23 21 26 25 21 23 26 29 29 31 30 30 29 29 28 28 27 26 26 25 25 25 24 23
39 39 39 39 39 39 39 40 40 40 36 31 28 23 25 22 23 24 25 28 31 32 31 31 29 28 28 26 27 23 26 25 22 20 19 26 28 29 30 31 29 29 29 30 29 28 27 26 26 26 26 25 24 22
38 38 38 38 38 39 38 38 39 34 31 27 25 22 23 27 29 30 31 31 32 32 31 29 27 26 26 27 26 25 24 20 20 20 25 28 28 28 29 30 30 30 28 28 29 27 26 25 25 25 25 25 25 23
34 34 34 35 35 36 35 32 33 32 30 26 26 25 27 28 28 30 31 31 33 31 30 28 24 25 25 24 21 21 18 18 23 27 28 28 28 28 28 30 30 29 29 29 29 28 26 25 26 27 25 25 24 23
34 33 37 35 34 34 32 32 31 28 27 25 26 29 28 29 28 30 31 32 34 33 28 25 23 24 26 22 21 24 23 25 27 27 28 27 27 27 28 28 28 28 28 29 28 28 27 27 25 24 24 24 23 23
34 35 36 34 33 32 31 30 27 25 24 27 25 28 29 30 30 30 31 34 34 30 29 27 26 22 22 19 20 25 26 28 27 27 27 27 27 27 27 28 27 28 27 27 27 26 25 24 25 26 26 25 22 22
35 34 34 34 30 28 25 27 27 24 27 29 29 29 30 31 31 32 33 33 32 30 27 24 23 21 21 23 24 25 26 27 27 27 27 28 27 26 26 25 25 25 24 25 26 26 26 26 26 25 24 22 23 23
30 32 32 31 28 24 21 23 27 23 23 26 29 28 29 29 28 30 29 28 26 24 22 20 21 22 23 24 25 26 27 28 29 28 27 28 29 27 27 26 26 25 24 24 23 21 22 21 20 20 21 20 22 22
28 30 29 30 28 26 24 23 23 24 25 26 26 26 26 27 26 26 24 23 22 21 20 22 22 24 25 25 25 26 25 26 27 27 26 27 29 28 27 27 26 25 25 25 26 25 24 25 23 22 25 25 25 24
28 29 25 26 25 25 24 24 23 24 23 24 23 23 23 23 24 24 21 20 19 20 22 23 23 23 23 22 22 23 23 23 23 24 26 27 27 27 28 28 27 27 26 25 24 25 24 22 23 23 24 24 21 21
27 25 24 22 20 21 21 24 21 20 19 21 20 19 22 22 22 21 19 18 19 20 21 22 24 23 21 20 19 20 21 20 20 21 23 24 25 26 27 27 27 27 26 26 26 26 26 24 24 25 25 24 23 23
23 21 18 20 20 19 20 21 21 19 20 18 17 19 20 20 20 17 15 16 17 18 18 20 22 21 19 17 17 18 18 19 19 20 21 21 22 22 23 23 23 23 24 25 26 27 27 26 26 25 25 25 24 24
16 16 17 16 20 18 18 18 17 17 17 17 18 19 21 19 16 15 14 15 16 16 17 17 17 17 16 17 17 17 17 17 18 18 19 20 21 22 21 21 20 20 21 23 23 24 24 24 24 24 23 23 23 22
12 18 18 19 20 18 16 16 16 17 17 17 19 20 20 18 14 13 13 14 15 15 16 16 16 15 15 15 15 15 16 16 17 17 18 18 18 19 19 18 19 19 19 20 20 20 20 20 20 20 21 21 21 22
10 18 19 21 22 20 20 20 18 18 17 16 19 19 19 13 12 11 12 13 13 15 15 16 15 14 14 14 13 14 15 15 16 17 18 17 17 17 17 17 16 16 17 19 19 20 20 20 20 20 20 21 21 20
21 21 17 20 20 19 18 18 18 18 18 18 18 17 16 13 11 10 10 12 14 15 14 14 14 13 13 13 14 15 16 17 18 19 18 17 16 16 15 16 16 15 16 17 16 17 18 19 20 20 19 18 17 17
21 21 19 15 16 18 19 19 19 19 19 20 19 15 10 6 7 8 9 11 13 13 12 12 13 14 13 13 14 14 14 15 16 14 14 14 14 14 14 14 14 14 15 15 15 15 17 19 19 18 15 14 12 11
18 21 19 17 16 15 20 21 21 18 14 13 10 7 5 5 6 8 9 10 10 10 10 10 11 11 11 11 11 11 12 12 12 11 11 10 11 12 13 13 12 13 13 13 13 14 14 16 14 13 11 10 9 7
18 20 19 19 18 20 21 19 17 14 12 9 9 9 5 4 5 7 7 7 7 8 8 8 8 9 9 9 9 9 9 11 11 11 11 11 12 12 11 11 11 12 11 11 11 10 10 9 8 7 6 4 4 3
16 17 16 15 18 20 19 20 17 13 10 9 6 5 4 4 3 4 6 6 6 6 5 6 7 7 8 9 10 11 11 11 10 10 9 10 10 10 10 10 10 10 9 8 7 7 6 5 4 3 2 1 -0 -1
12 15 15 16 16 16 19 18 14 9 9 7 5 4 4 5 1 3 7 7 6 6 6 7 7 8 9 9 10 10 10 8 7 6 5 4 4 5 7 8 7 7 6 5 5 4 3 2 1 -0 -1 -2 -3 -4
Wind_Speed
18 17 18 16 24 28 40 43 43 41 41 37 32 31 29 27 27 19 11 12 9 3 11 6 11 14 7 7 6 1 3 4 8 10 8 9 9 11 10 6 8 12 9 10 13 12 15 9 7 8 2 3 5 11
16 19 19 23 22 21 45 43 43 39 36 33 31 29 29 28 27 18 6 10 9 6 6 7 17 21 23 17 5 9 5 2 7 9 12 6 7 4 12 15 13 8 12 3 8 4 2 8 3 1 1 4 7 15
17 16 14 24 35 31 31 35 33 31 30 30 29 28 27 26 28 19 7 10 5 4 9 12 19 23 20 23 21 11 6 7 7 8 6 7 9 5 10 12 8 7 11 10 7 11 10 7 7 3 2 5 12 16
13 11 12 26 28 33 32 30 32 33 30 28 28 26 25 24 24 21 11 10 6 3 4 6 5 13 15 23 24 22 20 5 6 5 9 8 8 6 8 8 13 8 11 13 15 10 6 12 13 9 8 12 16 18
17 23 18 30 31 32 33 33 32 30 29 28 26 23 22 20 20 18 11 12 10 4 4 5 14 18 12 13 21 23 18 11 9 6 6 7 5 4 7 5 15 13 13 12 9 8 11 7 15 15 16 18 20 23
30 27 31 29 30 30 30 30 29 28 27 25 22 21 20 20 18 9 4 10 13 8 2 5 4 5 6 13 17 20 17 8 4 4 4 3 2 4 5 11 20 14 12 10 7 2 1 1 11 15 17 19 19 19
30 30 30 29 28 29 29 29 27 25 23 21 20 21 22 21 14 5 3 4 17 11 4 5 5 1 1 3 2 3 8 4 4 3 4 3 3 5 3 6 2 6 8 6 5 9 5 11 8 14 17 19 18 17
26 28 27 26 27 28 29 27 26 24 22 19 19 17 18 19 5 5 9 4 7 7 5 5 4 2 2 3 4 3 5 4 4 2 2 3 4 3 5 8 4 3 5 6 8 2 5 10 17 16 18 20 20 19
28 28 28 28 28 28 29 27 26 22 19 15 15 19 8 4 5 4 7 15 9 7 4 5 4 4 6 2 3 3 3 3 3 5 3 4 4 6 4 8 5 6 7 8 6 5 9 14 18 19 19 19 19 19
27 28 28 27 27 27 26 25 22 22 26 18 7 3 3 4 10 11 3 7 8 7 5 4 1 4 3 3 3 5 3 4 4 4 3 5 6 2 8 11 8 6 7 12 12 8 11 14 18 19 19 18 17 18
25 27 27 27 24 22 23 26 28 24 10 3 4 4 1 5 3 3 4 7 7 6 7 3 5 4 1 3 5 2 4 3 3 4 3 4 4 8 14 12 8 4 8 10 1 2 10 13 19 19 18 16 16 17
28 27 26 24 24 25 27 24 17 5 4 6 6 5 2 2 2 4 5 4 5 4 6 6 4 3 3 2 2 1 2 2 2 2 3 3 3 13 13 9 2 3 6 5 1 2 7 11 16 17 17 16 16 15
26 23 24 25 25 23 21 16 15 19 10 4 2 3 2 3 5 6 8 4 5 7 6 6 5 3 2 2 3 2 3 3 1 2 2 2 8 14 11 4 1 3 3 3 4 5 7 11 11 14 15 12 13 13
25 25 24 23 21 17 19 12 17 11 4 2 1 2 1 3 2 1 1 3 3 3 10 11 5 3 3 3 2 3 2 2 3 3 1 5 12 13 9 2 2 2 2 3 5 7 9 11 11 10 11 14 15 14
22 20 17 13 14 15 16 13 15 3 2 1 1 1 1 1 1 1 1 1 2 5 6 7 5 2 3 3 1 3 3 3 1 0 3 8 12 10 7 1 1 3 3 4 4 6 7 9 10 9 8 10 10 11
16 13 7 3 9 12 11 7 3 2 2 2 3 2 2 1 2 2 2 5 2 3 2 2 3 3 3 3 2 1 2 2 2 2 5 8 8 8 7 4 1 4 3 4 5 6 7 8 8 7 6 6 7 9
10 3 8 3 6 7 5 2 1 3 3 2 3 3 2 2 3 2 2 2 1 1 3 2 3 2 3 3 3 2 2 3 3 4 5 7 8 8 7 3 2 3 5 5 5 5 5 5 6 7 8 7 7 6
5 3 3 4 6 2 2 4 3 3 4 4 3 4 3 4 3 3 3 4 2 2 2 3 3 3 3 3 4 3 3 3 4 4 5 6 7 6 6 5 5 4 4 4 4 5 5 6 5 5 4 6 7 6
6 7 8 3 4 3 2 3 3 4 4 3 2 2 2 2 6 5 5 7 8 7 4 3 5 3 3 3 4 4 3 4 3 3 4 5 6 6 6 5 6 6 4 4 3 2 2 1 1 2 3 5 6 5
3 13 9 7 2 2 3 3 1 4 2 2 2 3 3 3 3 5 9 7 5 4 6 5 4 3 3 4 4 4 4 4 2 1 4 5 6 6 7 6 6 4 4 4 3 2 3 2 2 2 2 2 3 4
5 6 8 3 3 6 4 2 3 3 4 2 2 2 3 3 4 5 6 7 6 4 4 4 7 8 8 8 7 6 8 9 7 5 4 4 5 5 5 5 5 5 4 2 2 1 1 1 1 1 1 1 2 2
4 6 3 5 3 3 4 3 3 3 2 4 3 2 3 2 3 3 3 7 4 4 3 4 5 6 6 7 8 9 7 6 6 4 6 5 5 5 4 4 4 5 4 4 3 3 2 2 1 1 1 1 2 2
4 3 4 4 3 3 2 2 2 1 3 4 3 3 2 2 2 1 4 4 4 4 4 4 7 7 7 5 4 7 8 7 5 6 7 6 5 6 5 5 4 3 2 3 2 1 1 1 0 1 1 2 3 4
4 5 4 4 5 2 1 2 2 2 2 3 2 3 3 2 2 3 4 3 4 3 5 4 3 4 3 3 5 6 8 6 4 4 7 6 4 6 6 7 7 8 7 5 4 3 2 2 1 1 2 4 5 6
1 5 4 4 3 2 2 2 2 1 1 1 2 2 3 2 2 2 3 5 5 4 4 3 4 4 2 2 2 3 5 6 4 4 6 6 5 1 3 5 8 10 10 8 8 7 6 6 4 5 5 5 7 8
4 4 3 2 2 2 1 1 1 2 2 2 1 1 0 2 2 3 3 6 5 3 3 3 2 1 2 3 3 3 5 6 5 0 4 6 6 5 4 4 4 6 10 8 8 8 7 7 6 7 7 7 8 9
3 3 3 3 2 1 1 1 1 1 2 3 3 4 4 3 3 3 5 3 4 2 2 2 2 2 2 3 4 5 6 5 3 2 4 5 7 8 7 6 6 7 10 9 8 8 8 8 7 7 7 8 8 10
3 4 2 3 1 1 1 2 2 2 2 1 3 4 2 0 2 3 3 3 2 3 4 4 5 5 5 5 6 7 4 3 5 5 5 5 5 7 7 5 5 8 8 8 9 9 9 9 8 7 6 7 8 10
2 4 3 3 3 2 2 2 2 2 2 1 1 2 2 3 2 1 2 3 3 1 2 2 4 3 3 4 6 8 8 7 4 4 4 3 3 4 10 9 9 10 10 11 10 9 10 6 5 3 5 6 7 9
3 4 4 2 2 3 1 2 3 5 4 4 5 5 4 3 3 3 3 3 3 5 5 4 4 4 3 3 4 6 8 9 9 7 4 4 5 7 8 9 10 10 10 10 10 8 7 2 4 7 8 8 10 12
6 3 3 3 4 1 2 7 7 5 4 4 4 4 5 4 3 4 5 4 4 2 1 1 2 3 2 3 3 3 4 7 7 7 6 4 5 6 7 8 8 9 9 8 8 8 6 8 9 11 13 15 15 15
4 3 5 4 1 2 5 2 3 3 3 3 3 3 4 3 3 2 2 2 1 1 1 0 1 2 2 2 1 2 2 4 5 6 7 6 6 6 6 6 6 7 7 9 10 10 11 12 13 14 16 17 16 16
4 3 4 5 3 2 1 3 3 3 3 3 3 2 2 2 3 2 2 1 2 2 2 1 1 1 2 3 4 4 5 6 8 9 9 9 8 7 6 6 6 7 9 10 11 12 14 16 16 16 16 15 15 15
Wind_Direction
243 257 255 259 262 192 169 169 166 165 169 168 167 169 170 175 175 182 192 189 180 209 245 235 227 233 199 213 236 89 179 185 176 189 224 222 237 212 243 236 194 194 206 219 239 245 253 163 148 219 284 66 153 165
257 258 238 251 199 172 160 160 158 160 160 164 165 166 171 172 171 176 189 182 180 217 272 282 248 252 250 263 214 197 261 347 189 205 224 236 219 220 233 243 205 231 219 241 226 262 79 186 287 176 145 153 160 153
268 240 247 162 167 163 148 144 149 153 161 165 164 169 172 176 175 176 150 162 174 239 268 247 245 238 235 235 236 243 218 207 230 240 272 244 244 217 233 244 236 245 225 232 247 236 242 238 221 228 166 161 152 152
242 215 218 135 133 145 149 158 160 160 161 163 165 171 174 180 182 181 180 176 149 183 246 264 237 239 239 228 222 229 237 210 263 259 231 229 241 219 245 252 248 260 181 229 247 246 260 246 223 194 159 147 145 152
239 170 152 143 147 149 149 147 148 153 157 162 164 168 172 177 182 185 197 197 180 194 283 288 297 265 239 224 222 231 215 212 216 185 217 213 243 217 234 250 245 212 220 211 234 239 227 278 197 175 160 160 157 154
134 158 143 131 132 133 137 142 147 153 158 155 160 166 172 169 157 150 192 196 194 182 276 285 330 243 228 228 226 223 208 185 138 178 205 219 264 218 237 242 244 229 233 243 254 140 196 132 160 169 160 159 158 157
132 129 127 127 131 135 139 143 144 142 143 149 160 169 168 159 154 169 176 88 176 154 218 265 253 251 312 149 112 114 139 132 161 198 219 203 218 207 236 244 201 212 219 203 173 135 125 166 171 161 153 152 151 148
123 121 123 128 133 136 135 134 135 137 138 148 154 156 159 153 121 235 234 195 147 168 186 242 253 252 164 161 137 166 153 154 190 200 194 228 173 232 260 258 253 183 170 176 173 246 304 154 146 147 148 149 147 150
114 117 122 127 129 131 129 130 128 135 149 153 162 155 147 163 177 216 190 180 159 207 218 208 227 186 164 127 104 141 181 162 141 212 203 186 198 229 302 336 306 220 208 186 159 138 156 157 154 154 157 160 155 157
117 122 126 127 127 126 129 135 143 134 119 107 79 122 195 193 138 105 106 178 165 213 226 241 171 178 183 144 114 138 191 186 191 184 143 222 242 292 358 334 306 235 200 166 152 163 168 168 170 169 172 169 167 166
115 118 120 121 124 128 129 129 123 121 111 108 150 189 143 155 92 171 190 185 179 188 195 177 188 156 193 149 132 224 166 159 217 162 226 222 216 353 339 332 330 186 181 183 307 230 200 184 175 171 171 172 169 169
113 114 119 124 124 125 129 130 126 110 118 129 118 120 100 157 144 202 188 173 221 170 158 164 140 113 138 231 177 142 133 162 220 137 227 237 46 349 339 334 341 171 164 170 62 136 170 177 177 172 170 172 170 167
108 117 115 117 122 127 130 121 89 106 87 69 93 120 195 150 194 201 180 181 173 162 161 156 124 117 146 194 79 120 160 188 152 201 249 15 340 342 339 338 97 117 138 123 84 115 148 156 163 169 161 152 144 152
109 114 119 122 124 134 153 155 153 141 91 79 85 115 347 175 191 197 80 111 84 133 144 137 131 156 139 112 123 143 117 185 188 220 244 352 342 336 332 312 160 131 98 111 124 138 144 150 151 147 154 156 159 169
96 97 103 119 139 148 163 170 171 172 130 107 204 66 73 9 285 312 325 126 97 140 142 128 108 103 82 105 99 125 158 170 188 136 354 346 335 333 329 294 153 145 130 115 125 138 148 157 162 158 164 168 167 159
81 68 34 57 115 137 148 114 94 135 87 76 47 144 3 279 72 39 58 98 103 136 126 91 112 106 93 111 122 90 156 130 121 14 349 339 342 346 336 322 177 137 118 106 119 130 141 153 154 147 144 161 173 179
79 66 2 94 84 88 72 81 84 59 71 62 65 32 1 356 21 23 20 58 11 150 89 99 86 84 127 104 108 25 62 66 15 354 348 355 343 348 351 4 50 129 120 112 117 123 126 126 131 146 174 185 184 191
76 44 28 167 178 128 65 35 83 71 73 52 81 40 32 17 353 34 3 4 24 70 53 75 116 98 75 119 121 73 89 91 48 12 2 354 3 12 27 41 51 63 93 93 106 121 135 150 169 181 163 167 180 194
60 27 21 53 159 100 69 45 19 83 61 52 41 38 21 41 33 8 27 41 62 56 101 71 73 72 86 66 73 61 48 29 30 41 29 24 23 26 37 46 51 54 64 76 109 141 134 132 331 194 181 178 216 210
117 36 21 45 164 100 86 53 12 84 99 72 58 37 39 42 5 25 49 50 57 54 53 46 61 74 74 69 44 39 17 348 300 161 49 34 31 40 38 39 53 58 65 73 73 86 118 134 133 143 161 196 224 239
37 353 354 32 58 56 76 41 72 71 122 93 91 69 72 37 41 29 31 14 62 41 81 83 98 85 75 65 48 42 36 29 37 36 18 1 9 17 38 46 38 39 40 39 22 68 40 19 56 125 190 227 241 253
357 340 42 23 80 76 83 33 77 120 122 119 126 95 97 84 48 33 16 48 64 54 52 100 107 119 92 63 47 38 17 9 25 26 14 2 11 11 19 17 21 35 38 41 43 48 41 42 84 159 198 215 208 217
354 28 53 29 86 56 91 326 118 97 136 143 138 124 112 116 93 104 78 67 89 47 48 80 92 92 98 82 62 41 24 15 24 19 7 2 8 11 15 34 19 4 16 49 12 335 340 24 349 287 273 252 248 244
31 48 37 45 30 87 353 56 52 101 119 146 147 135 135 123 122 81 103 109 111 85 78 67 148 137 111 72 45 32 15 3 15 33 13 359 27 42 46 50 45 36 9 334 344 353 23 29 12 299 292 285 277 273
66 13 16 50 34 72 73 67 31 97 120 116 144 147 144 176 141 120 141 147 147 107 62 55 69 60 66 62 51 30 17 6 7 14 23 9 5 40 70 67 55 37 16 18 18 16 20 9 0 350 329 313 305 297
74 4 32 34 28 37 65 120 132 138 135 142 118 94 285 176 177 142 127 153 144 123 82 65 44 65 62 25 353 352 350 345 326 49 42 25 30 32 31 26 17 38 15 3 355 353 355 354 345 338 330 327 327 320
75 42 27 25 332 78 109 90 108 198 191 188 179 181 182 207 200 128 130 103 134 107 103 68 42 67 68 39 8 344 324 308 283 57 93 68 56 44 37 24 10 350 337 343 338 333 328 328 330 331 333 335 343 344
36 5 4 333 307 341 222 213 211 207 165 137 168 192 224 234 132 111 91 75 55 115 102 81 67 64 57 37 13 3 23 63 142 138 131 117 83 58 33 12 354 339 333 337 334 326 319 311 307 314 335 351 356 359
8 355 327 308 305 263 237 221 178 132 27 244 217 154 128 70 68 83 47 16 29 117 114 95 59 32 52 46 39 33 26 14 313 261 270 299 346 23 6 358 352 352 347 341 344 348 335 329 345 40 52 54 51 49
348 348 300 268 261 259 168 188 144 113 66 74 101 110 107 102 57 21 40 60 82 81 70 60 41 41 42 39 54 54 44 37 34 26 7 9 0 346 351 354 352 350 347 348 349 353 14 39 67 67 72 75 76 78
315 290 260 242 262 328 124 116 108 97 87 85 61 93 112 126 119 51 50 39 42 47 102 86 76 45 59 65 60 55 58 42 29 28 19 9 4 3 0 353 352 350 358 4 14 24 45 64 73 78 80 83 82 86
307 291 330 294 311 73 159 201 130 107 104 115 95 105 133 140 132 125 42 5 55 79 71 68 175 108 35 15 38 54 26 23 29 19 16 11 9 6 2 4 8 19 35 46 50 59 70 80 84 86 86 84 83 82
286 303 303 293 295 312 191 203 146 114 95 98 93 101 84 93 128 111 121 15 15 9 350 323 213 106 51 53 48 69 70 68 59 49 44 39 31 20 22 27 37 50 64 69 71 73 77 82 84 85 85 86 84 83